Location: Rottenacker
(48.2350°N, 9.6886°E)
Time: 19:38:54
(UTC+02:00)

OTV 5 (USA 277) - Pass Details

Date: 26 April 2018
Orbit: 308 x 326 km, 54.5° (Epoch: 06 May)

Event Time Altitude Azimuth Distance (km) Brightness Sun altitude
Rises 22:03:11 0° 295° (WNW) 2,065 ? -14.4°
Reaches altitude 10° 22:05:25 10° 312° (NW) 1,229 ? -14.7°
Maximum altitude 22:07:38 21° 6° (N) 777 ? -14.9°
Enters shadow 22:09:34 12° 57° (ENE) 1,141 ? -15.2°
